{"data":{"norad_id":63147,"epoch":"2026-09-21T17:18:19.300608Z","epoch_age_seconds":56666,"freshness":"FRESH","line1":"1 63147U 25043R   26264.72105672  .00011705  00000+0  43400-3 0  9992","line2":"2 63147  43.0008 356.0023 0000709 259.2777 100.7995 15.27595935 87267","mean_motion":15.27595935,"eccentricity":7.09e-5,"inclination_deg":43.0008,"raan_deg":356.0023,"arg_perigee_deg":259.2777,"mean_anomaly_deg":100.7995,"bstar":0.000434,"rev_number":8726,"period_min":94.265765377282,"perigee_km":482.51492662061,"apogee_km":483.48783604309,"semimajor_km":6861.1383813318,"source":"CELESTRAK","updated_at":"2026-09-22T09:00:49.792980Z"}}